星链-3517 (STARLINK-3517 )

导读

STARLINK-3517是美国太空探索技术公司星链互联网卫星组网中的一颗卫星,于2022年2月21日发射升空,属于星链项目的第二批部署卫星。它被部署在近地轨道,主要为全球提供高速卫星互联网接入服务,是SpaceX实现全球卫星互联网覆盖规划的组成部分。

基本信息
目录编号:
51735
目录名称:
STARLINK-3517
国际标识:
2022-016X
轨道中心:
EARTH
卫星名称:
星链-3517
卫星全名:
星链-3517 (STARLINK-3517 )
卫星状态:
在轨 (已飞行1577 天)
发射日期:
2022-02-21 UTC
国别 :
美国 (US)
星等 :
--
轨道信息
数据来源 国际轨道数据
星历时间: 2026-06-17T19:35:55+0800
5小时前
查看轨道信息
半长轴: 6917.86km
偏心率: 0.0001061
轨道倾角: 53.159°
近地点辐角 86.857°
升交点赤经 231.032°
平近点角 273.255°
近地点: 538.989km
远地点: 540.457km
周期: 95.437分钟
每日圈数: 15.088467
详细信息
固有亮度:
5
最大亮度:
2.5
卫星平台:
Starlink v1.5
覆盖范围:
全球
运营商:
太空探索技术公司
运营商所在国:
美国
制造商(研发单位):
太空探索技术公司
制造商所在国:
美国
使用方式:
暂无
卫星简介
星链(Starlink)计划是由太空探索技术公司(SpaceX)提出的一个巨型低轨卫星互联网星座项目,计划在2019年至2024年间在太空搭建由约1.2万颗卫星组成的“星链”网络,其中1584颗将部署在地球上空550千米处的近地轨道,并从2020年开始工作。该卫星仍在工作。
2D轨道图
3D轨道图
轨道高度分析图
轨道倾角分析图
轨道综合分析图
查看轨道综合分析图